OV1-5 R/B, 2123

Orbit data source: Space-Track

OV1-5 R/B, 2123 is space debris in LEO originally from a launch on Wed, 30 Mar 1966 UTC launched from the Air Force Western Test Range (AFWTR). Debris objects in space refer to the collection of defunct objects orbiting the Earth. Examples of debris include non-operational satellites, rocket bodies, and fragments generated from explosions, collisions, or faulty payload assembly.

Loading next visibility...
OV1-5 R/B details
Identifier
2123, 1966-025C
Orbit
LEO
Last TLE update14 hours ago
Origin
Flag of USUSAF OAR (US)
ManufacturerABL
MissionSpacecraft
Bus & MotorALTAIR, Unknown motor
Mass~125 kg wet, ~125 kg dry
Launch date (UTC)
1966-03-30 (59 years ago)
Launch vehicleUnknown
Launch site
Air Force Western Test Range (AFWTR)
Object type
Payload
Rocket body
Debris
Shape & HBRCyl, 2.1 m
Radar Cross Section1.347 m², Medium (>0.1 m² and < 1m²)

Expand to show TLE details & history

TLE from 14 hours ago
0 OV1-5 R/B
1 02123U 66025C   25024.44719328  .00000424  00000-0  19889-3 0  9996
2 02123 144.6421 334.3994 0046611 352.8093   7.1914 13.65827641935209
Epoch: 2025-01-24T10:43Z
Definitive object data (Epoch: 2025-01-24T10:43:57.499Z)
Latitude0.00002°
Longitude49.39957°
Altitude979.429 km
Speed7.381 km/s
True Right ascension22h 17m 35s
True Declination0° 00' 00"
Sunlit
Object was in daylight at TLE epoch
Visualization TLE readout
Latitude-22.6799°
Longitude88.06485°
Altitude992.097 km
Speed7.37 km/s
Apparent Right ascension22h 46m 42s
Apparent Declination-70° 37' 46"
Sunlit
Object is in daylight
Visualization observer readout
Local Sidereal Time01:52:01
Azimuth195.407° SSW
Elevation-25.447°
Doppler factor1
Orbital elements
Apogee altitude1,052.031 km
Perigee altitude983.087 km
Semi-major axis7,395.696 km
Eccentricity0.0046611
Inclination144.6421°
RAAN334.3994°
Arg. of periapsis352.8093°
True anomaly7.25865°
Mean anomaly7.1914°
Eccentric anomaly7.22499°
Mean motion3.41252 °/min
BSTAR0.00019889
Orbital period105.49 mins
Loading maneuver chart data...
Loading historical data...
Loading historical data...
Loading historical data...
Loading historical data...
Loading historical data...
Loading historical data...
Loading historical data...

OV1-5 R/B Visibility forecast

Observer location: undefined°, undefined

Span
Click to sort rows by Start time (UTC) header in descending order
Start Az.
Max El. time (UTC)
Max El. Az.
Max El.
End time (UTC)
End Az.
8 mins2025-01-25 11:51:10.673Z106.316° ESE2025-01-25 11:55:10.673Z152.824° SSE22.471°2025-01-25 11:59:10.673Z200.364° SSW
9 mins2025-01-25 13:31:10.673Z100.953° ESE2025-01-25 13:35:10.673Z165.403° S36.013°2025-01-25 13:40:10.673Z235.693° WSW
10 mins2025-01-25 15:10:10.673Z102.734° ESE2025-01-25 15:15:10.673Z189.664° SSW40.664°2025-01-25 15:20:10.673Z257.061° W
10 mins2025-01-25 16:50:10.673Z123.271° SE2025-01-25 16:55:10.673Z207.229° SW36.361°2025-01-25 17:00:10.673Z265.714° W
8 mins2025-01-25 18:31:10.673Z159.577° S2025-01-25 18:35:10.673Z212.993° SW23.247°2025-01-25 18:39:10.673Z257.743° W
|